Index of /20260429/WXO-DD/model_gdps/15km/12/240
Name Last modified Size Description
Parent Directory -
20260429T12Z_MSC_GDPS_AbsoluteVorticity_IsbL-0200_LatLon0.15_PT240H.grib2 2026-04-29 16:47 1.2M
20260429T12Z_MSC_GDPS_AbsoluteVorticity_IsbL-0250_LatLon0.15_PT240H.grib2 2026-04-29 16:47 1.3M
20260429T12Z_MSC_GDPS_AbsoluteVorticity_IsbL-0500_LatLon0.15_PT240H.grib2 2026-04-29 16:47 1.2M
20260429T12Z_MSC_GDPS_AbsoluteVorticity_IsbL-0700_LatLon0.15_PT240H.grib2 2026-04-29 16:47 1.3M
20260429T12Z_MSC_GDPS_AbsoluteVorticity_IsbL-0850_LatLon0.15_PT240H.grib2 2026-04-29 16:47 1.6M
20260429T12Z_MSC_GDPS_AirTemp-Max_AGL-2m_LatLon0.15_PT240H.grib2 2026-04-29 16:47 743K
20260429T12Z_MSC_GDPS_AirTemp-Min_AGL-2m_LatLon0.15_PT240H.grib2 2026-04-29 16:47 792K
20260429T12Z_MSC_GDPS_AirTemp_AGL-120m_LatLon0.15_PT240H.grib2 2026-04-29 16:47 905K
20260429T12Z_MSC_GDPS_AirTemp_AGL-2m_LatLon0.15_PT240H.grib2 2026-04-29 16:47 1.0M
20260429T12Z_MSC_GDPS_AirTemp_AGL-40m_LatLon0.15_PT240H.grib2 2026-04-29 16:47 808K
20260429T12Z_MSC_GDPS_AirTemp_AGL-80m_LatLon0.15_PT240H.grib2 2026-04-29 16:47 913K
20260429T12Z_MSC_GDPS_AirTemp_IsbL-0001_LatLon0.15_PT240H.grib2 2026-04-29 16:47 667K
20260429T12Z_MSC_GDPS_AirTemp_IsbL-0005_LatLon0.15_PT240H.grib2 2026-04-29 16:47 700K
20260429T12Z_MSC_GDPS_AirTemp_IsbL-0010_LatLon0.15_PT240H.grib2 2026-04-29 16:47 700K
20260429T12Z_MSC_GDPS_AirTemp_IsbL-0020_LatLon0.15_PT240H.grib2 2026-04-29 16:47 725K
20260429T12Z_MSC_GDPS_AirTemp_IsbL-0030_LatLon0.15_PT240H.grib2 2026-04-29 16:47 841K
20260429T12Z_MSC_GDPS_AirTemp_IsbL-0050_LatLon0.15_PT240H.grib2 2026-04-29 16:47 884K
20260429T12Z_MSC_GDPS_AirTemp_IsbL-0100_LatLon0.15_PT240H.grib2 2026-04-29 16:47 963K
20260429T12Z_MSC_GDPS_AirTemp_IsbL-0150_LatLon0.15_PT240H.grib2 2026-04-29 16:47 962K
20260429T12Z_MSC_GDPS_AirTemp_IsbL-0175_LatLon0.15_PT240H.grib2 2026-04-29 16:47 957K
20260429T12Z_MSC_GDPS_AirTemp_IsbL-0200_LatLon0.15_PT240H.grib2 2026-04-29 16:47 1.0M
20260429T12Z_MSC_GDPS_AirTemp_IsbL-0225_LatLon0.15_PT240H.grib2 2026-04-29 16:47 1.0M
20260429T12Z_MSC_GDPS_AirTemp_IsbL-0250_LatLon0.15_PT240H.grib2 2026-04-29 16:47 1.0M
20260429T12Z_MSC_GDPS_AirTemp_IsbL-0275_LatLon0.15_PT240H.grib2 2026-04-29 16:47 1.0M
20260429T12Z_MSC_GDPS_AirTemp_IsbL-0300_LatLon0.15_PT240H.grib2 2026-04-29 16:47 1.0M
20260429T12Z_MSC_GDPS_AirTemp_IsbL-0350_LatLon0.15_PT240H.grib2 2026-04-29 16:47 927K
20260429T12Z_MSC_GDPS_AirTemp_IsbL-0400_LatLon0.15_PT240H.grib2 2026-04-29 16:47 943K
20260429T12Z_MSC_GDPS_AirTemp_IsbL-0450_LatLon0.15_PT240H.grib2 2026-04-29 16:47 968K
20260429T12Z_MSC_GDPS_AirTemp_IsbL-0500_LatLon0.15_PT240H.grib2 2026-04-29 16:47 1.0M
20260429T12Z_MSC_GDPS_AirTemp_IsbL-0550_LatLon0.15_PT240H.grib2 2026-04-29 16:47 803K
20260429T12Z_MSC_GDPS_AirTemp_IsbL-0600_LatLon0.15_PT240H.grib2 2026-04-29 16:47 894K
20260429T12Z_MSC_GDPS_AirTemp_IsbL-0650_LatLon0.15_PT240H.grib2 2026-04-29 16:47 920K
20260429T12Z_MSC_GDPS_AirTemp_IsbL-0700_LatLon0.15_PT240H.grib2 2026-04-29 16:47 950K
20260429T12Z_MSC_GDPS_AirTemp_IsbL-0750_LatLon0.15_PT240H.grib2 2026-04-29 16:47 1.0M
20260429T12Z_MSC_GDPS_AirTemp_IsbL-0800_LatLon0.15_PT240H.grib2 2026-04-29 16:47 1.1M
20260429T12Z_MSC_GDPS_AirTemp_IsbL-0850_LatLon0.15_PT240H.grib2 2026-04-29 16:47 1.1M
20260429T12Z_MSC_GDPS_AirTemp_IsbL-0875_LatLon0.15_PT240H.grib2 2026-04-29 16:47 1.2M
20260429T12Z_MSC_GDPS_AirTemp_IsbL-0900_LatLon0.15_PT240H.grib2 2026-04-29 16:47 1.2M
20260429T12Z_MSC_GDPS_AirTemp_IsbL-0925_LatLon0.15_PT240H.grib2 2026-04-29 16:47 1.1M
20260429T12Z_MSC_GDPS_AirTemp_IsbL-0950_LatLon0.15_PT240H.grib2 2026-04-29 16:47 1.1M
20260429T12Z_MSC_GDPS_AirTemp_IsbL-0970_LatLon0.15_PT240H.grib2 2026-04-29 16:47 1.2M
20260429T12Z_MSC_GDPS_AirTemp_IsbL-0985_LatLon0.15_PT240H.grib2 2026-04-29 16:47 1.1M
20260429T12Z_MSC_GDPS_AirTemp_IsbL-1000_LatLon0.15_PT240H.grib2 2026-04-29 16:47 1.1M
20260429T12Z_MSC_GDPS_AirTemp_IsbL-1015_LatLon0.15_PT240H.grib2 2026-04-29 16:47 1.1M
20260429T12Z_MSC_GDPS_Albedo_Sfc_LatLon0.15_PT240H.grib2 2026-04-29 16:47 240K
20260429T12Z_MSC_GDPS_CAPE_Sfc_LatLon0.15_PT240H.grib2 2026-04-29 16:47 4.1M
20260429T12Z_MSC_GDPS_CIN_Sfc_LatLon0.15_PT240H.grib2 2026-04-29 16:47 2.9M
20260429T12Z_MSC_GDPS_CloudWater_EAtm_LatLon0.15_PT240H.grib2 2026-04-29 16:47 543K
20260429T12Z_MSC_GDPS_ConvectivePrecip-Accum_Sfc_LatLon0.15_PT240H.grib2 2026-04-29 16:47 3.8M
20260429T12Z_MSC_GDPS_DewPointDepression_AGL-2m_LatLon0.15_PT240H.grib2 2026-04-29 16:47 757K
20260429T12Z_MSC_GDPS_DewPointDepression_IsbL-0010_LatLon0.15_PT240H.grib2 2026-04-29 16:47 81K
20260429T12Z_MSC_GDPS_DewPointDepression_IsbL-0020_LatLon0.15_PT240H.grib2 2026-04-29 16:47 81K
20260429T12Z_MSC_GDPS_DewPointDepression_IsbL-0030_LatLon0.15_PT240H.grib2 2026-04-29 16:47 96K
20260429T12Z_MSC_GDPS_DewPointDepression_IsbL-0050_LatLon0.15_PT240H.grib2 2026-04-29 16:47 381K
20260429T12Z_MSC_GDPS_DewPointDepression_IsbL-0100_LatLon0.15_PT240H.grib2 2026-04-29 16:47 397K
20260429T12Z_MSC_GDPS_DewPointDepression_IsbL-0150_LatLon0.15_PT240H.grib2 2026-04-29 16:47 496K
20260429T12Z_MSC_GDPS_DewPointDepression_IsbL-0175_LatLon0.15_PT240H.grib2 2026-04-29 16:47 600K
20260429T12Z_MSC_GDPS_DewPointDepression_IsbL-0200_LatLon0.15_PT240H.grib2 2026-04-29 16:47 693K
20260429T12Z_MSC_GDPS_DewPointDepression_IsbL-0225_LatLon0.15_PT240H.grib2 2026-04-29 16:47 773K
20260429T12Z_MSC_GDPS_DewPointDepression_IsbL-0250_LatLon0.15_PT240H.grib2 2026-04-29 16:47 864K
20260429T12Z_MSC_GDPS_DewPointDepression_IsbL-0275_LatLon0.15_PT240H.grib2 2026-04-29 16:47 884K
20260429T12Z_MSC_GDPS_DewPointDepression_IsbL-0300_LatLon0.15_PT240H.grib2 2026-04-29 16:47 928K
20260429T12Z_MSC_GDPS_DewPointDepression_IsbL-0350_LatLon0.15_PT240H.grib2 2026-04-29 16:47 961K
20260429T12Z_MSC_GDPS_DewPointDepression_IsbL-0400_LatLon0.15_PT240H.grib2 2026-04-29 16:47 1.0M
20260429T12Z_MSC_GDPS_DewPointDepression_IsbL-0450_LatLon0.15_PT240H.grib2 2026-04-29 16:47 1.0M
20260429T12Z_MSC_GDPS_DewPointDepression_IsbL-0500_LatLon0.15_PT240H.grib2 2026-04-29 16:47 1.0M
20260429T12Z_MSC_GDPS_DewPointDepression_IsbL-0550_LatLon0.15_PT240H.grib2 2026-04-29 16:47 1.0M
20260429T12Z_MSC_GDPS_DewPointDepression_IsbL-0600_LatLon0.15_PT240H.grib2 2026-04-29 16:47 1.0M
20260429T12Z_MSC_GDPS_DewPointDepression_IsbL-0650_LatLon0.15_PT240H.grib2 2026-04-29 16:47 1.1M
20260429T12Z_MSC_GDPS_DewPointDepression_IsbL-0700_LatLon0.15_PT240H.grib2 2026-04-29 16:47 1.1M
20260429T12Z_MSC_GDPS_DewPointDepression_IsbL-0750_LatLon0.15_PT240H.grib2 2026-04-29 16:47 1.1M
20260429T12Z_MSC_GDPS_DewPointDepression_IsbL-0800_LatLon0.15_PT240H.grib2 2026-04-29 16:47 1.2M
20260429T12Z_MSC_GDPS_DewPointDepression_IsbL-0850_LatLon0.15_PT240H.grib2 2026-04-29 16:47 1.2M
20260429T12Z_MSC_GDPS_DewPointDepression_IsbL-0875_LatLon0.15_PT240H.grib2 2026-04-29 16:47 1.1M
20260429T12Z_MSC_GDPS_DewPointDepression_IsbL-0900_LatLon0.15_PT240H.grib2 2026-04-29 16:47 1.1M
20260429T12Z_MSC_GDPS_DewPointDepression_IsbL-0925_LatLon0.15_PT240H.grib2 2026-04-29 16:47 1.0M
20260429T12Z_MSC_GDPS_DewPointDepression_IsbL-0950_LatLon0.15_PT240H.grib2 2026-04-29 16:47 1.0M
20260429T12Z_MSC_GDPS_DewPointDepression_IsbL-0970_LatLon0.15_PT240H.grib2 2026-04-29 16:47 1.0M
20260429T12Z_MSC_GDPS_DewPointDepression_IsbL-0985_LatLon0.15_PT240H.grib2 2026-04-29 16:47 969K
20260429T12Z_MSC_GDPS_DewPointDepression_IsbL-1000_LatLon0.15_PT240H.grib2 2026-04-29 16:47 964K
20260429T12Z_MSC_GDPS_DewPointDepression_IsbL-1015_LatLon0.15_PT240H.grib2 2026-04-29 16:47 910K
20260429T12Z_MSC_GDPS_DewPoint_AGL-2m_LatLon0.15_PT240H.grib2 2026-04-29 16:47 609K
20260429T12Z_MSC_GDPS_DownwardLongwaveRadiationFlux-Accum_Sfc_LatLon0.15_PT240H.grib2 2026-04-29 16:47 744K
20260429T12Z_MSC_GDPS_DownwardShortwaveRadiationFlux-Accum_NTAtm_LatLon0.15_PT240H.grib2 2026-04-29 16:47 248K
20260429T12Z_MSC_GDPS_DownwardShortwaveRadiationFlux-Accum_Sfc_LatLon0.15_PT240H.grib2 2026-04-29 16:47 922K
20260429T12Z_MSC_GDPS_FreezingRain-Accum12h_Sfc_LatLon0.15_PT240H.grib2 2026-04-29 16:47 119K
20260429T12Z_MSC_GDPS_FreezingRain-Accum24h_Sfc_LatLon0.15_PT240H.grib2 2026-04-29 16:47 127K
20260429T12Z_MSC_GDPS_FreezingRain-Accum6h_Sfc_LatLon0.15_PT240H.grib2 2026-04-29 16:47 91K
20260429T12Z_MSC_GDPS_FreezingRain-Accum_Sfc_LatLon0.15_PT240H.grib2 2026-04-29 16:47 463K
20260429T12Z_MSC_GDPS_GeopotentialHeight_IsbL-0001_LatLon0.15_PT240H.grib2 2026-04-29 16:47 443K
20260429T12Z_MSC_GDPS_GeopotentialHeight_IsbL-0005_LatLon0.15_PT240H.grib2 2026-04-29 16:47 500K
20260429T12Z_MSC_GDPS_GeopotentialHeight_IsbL-0010_LatLon0.15_PT240H.grib2 2026-04-29 16:47 490K
20260429T12Z_MSC_GDPS_GeopotentialHeight_IsbL-0020_LatLon0.15_PT240H.grib2 2026-04-29 16:47 420K
20260429T12Z_MSC_GDPS_GeopotentialHeight_IsbL-0030_LatLon0.15_PT240H.grib2 2026-04-29 16:47 419K
20260429T12Z_MSC_GDPS_GeopotentialHeight_IsbL-0050_LatLon0.15_PT240H.grib2 2026-04-29 16:47 572K
20260429T12Z_MSC_GDPS_GeopotentialHeight_IsbL-0100_LatLon0.15_PT240H.grib2 2026-04-29 16:47 615K
20260429T12Z_MSC_GDPS_GeopotentialHeight_IsbL-0150_LatLon0.15_PT240H.grib2 2026-04-29 16:47 631K
20260429T12Z_MSC_GDPS_GeopotentialHeight_IsbL-0175_LatLon0.15_PT240H.grib2 2026-04-29 16:47 635K
20260429T12Z_MSC_GDPS_GeopotentialHeight_IsbL-0200_LatLon0.15_PT240H.grib2 2026-04-29 16:47 639K
20260429T12Z_MSC_GDPS_GeopotentialHeight_IsbL-0225_LatLon0.15_PT240H.grib2 2026-04-29 16:47 643K
20260429T12Z_MSC_GDPS_GeopotentialHeight_IsbL-0250_LatLon0.15_PT240H.grib2 2026-04-29 16:47 646K
20260429T12Z_MSC_GDPS_GeopotentialHeight_IsbL-0275_LatLon0.15_PT240H.grib2 2026-04-29 16:47 646K
20260429T12Z_MSC_GDPS_GeopotentialHeight_IsbL-0300_LatLon0.15_PT240H.grib2 2026-04-29 16:47 638K
20260429T12Z_MSC_GDPS_GeopotentialHeight_IsbL-0350_LatLon0.15_PT240H.grib2 2026-04-29 16:47 639K
20260429T12Z_MSC_GDPS_GeopotentialHeight_IsbL-0400_LatLon0.15_PT240H.grib2 2026-04-29 16:47 630K
20260429T12Z_MSC_GDPS_GeopotentialHeight_IsbL-0450_LatLon0.15_PT240H.grib2 2026-04-29 16:47 620K
20260429T12Z_MSC_GDPS_GeopotentialHeight_IsbL-0500_LatLon0.15_PT240H.grib2 2026-04-29 16:47 538K
20260429T12Z_MSC_GDPS_GeopotentialHeight_IsbL-0550_LatLon0.15_PT240H.grib2 2026-04-29 16:47 530K
20260429T12Z_MSC_GDPS_GeopotentialHeight_IsbL-0600_LatLon0.15_PT240H.grib2 2026-04-29 16:47 528K
20260429T12Z_MSC_GDPS_GeopotentialHeight_IsbL-0650_LatLon0.15_PT240H.grib2 2026-04-29 16:47 695K
20260429T12Z_MSC_GDPS_GeopotentialHeight_IsbL-0700_LatLon0.15_PT240H.grib2 2026-04-29 16:47 696K
20260429T12Z_MSC_GDPS_GeopotentialHeight_IsbL-0750_LatLon0.15_PT240H.grib2 2026-04-29 16:47 701K
20260429T12Z_MSC_GDPS_GeopotentialHeight_IsbL-0800_LatLon0.15_PT240H.grib2 2026-04-29 16:47 710K
20260429T12Z_MSC_GDPS_GeopotentialHeight_IsbL-0850_LatLon0.15_PT240H.grib2 2026-04-29 16:47 717K
20260429T12Z_MSC_GDPS_GeopotentialHeight_IsbL-0875_LatLon0.15_PT240H.grib2 2026-04-29 16:47 726K
20260429T12Z_MSC_GDPS_GeopotentialHeight_IsbL-0900_LatLon0.15_PT240H.grib2 2026-04-29 16:47 732K
20260429T12Z_MSC_GDPS_GeopotentialHeight_IsbL-0925_LatLon0.15_PT240H.grib2 2026-04-29 16:47 739K
20260429T12Z_MSC_GDPS_GeopotentialHeight_IsbL-0950_LatLon0.15_PT240H.grib2 2026-04-29 16:47 746K
20260429T12Z_MSC_GDPS_GeopotentialHeight_IsbL-0970_LatLon0.15_PT240H.grib2 2026-04-29 16:47 755K
20260429T12Z_MSC_GDPS_GeopotentialHeight_IsbL-0985_LatLon0.15_PT240H.grib2 2026-04-29 16:47 771K
20260429T12Z_MSC_GDPS_GeopotentialHeight_IsbL-1000_LatLon0.15_PT240H.grib2 2026-04-29 16:47 791K
20260429T12Z_MSC_GDPS_GeopotentialHeight_IsbL-1015_LatLon0.15_PT240H.grib2 2026-04-29 16:47 812K
20260429T12Z_MSC_GDPS_Humidex_Sfc_LatLon0.15_PT240H.grib2 2026-04-29 16:47 5.3M
20260429T12Z_MSC_GDPS_IcePellets-Accum12h_Sfc_LatLon0.15_PT240H.grib2 2026-04-29 16:47 66K
20260429T12Z_MSC_GDPS_IcePellets-Accum24h_Sfc_LatLon0.15_PT240H.grib2 2026-04-29 16:47 72K
20260429T12Z_MSC_GDPS_IcePellets-Accum6h_Sfc_LatLon0.15_PT240H.grib2 2026-04-29 16:47 61K
20260429T12Z_MSC_GDPS_IcePellets-Accum_Sfc_LatLon0.15_PT240H.grib2 2026-04-29 16:47 196K
20260429T12Z_MSC_GDPS_KIndex_Sfc_LatLon0.15_PT240H.grib2 2026-04-29 16:47 6.5M
20260429T12Z_MSC_GDPS_LatentHeatNetFlux_Sfc_LatLon0.15_PT240H.grib2 2026-04-29 16:47 558K
20260429T12Z_MSC_GDPS_LiftedIndex-MU-VT_IsbL-0500_LatLon0.15_PT240H.grib2 2026-04-29 16:47 5.4M
20260429T12Z_MSC_GDPS_NetLongwaveRadiationFlux-Accum_Sfc_LatLon0.15_PT240H.grib2 2026-04-29 16:47 970K
20260429T12Z_MSC_GDPS_NetShortwaveRadiationFlux-Accum_Sfc_LatLon0.15_PT240H.grib2 2026-04-29 16:47 921K
20260429T12Z_MSC_GDPS_O3MixingRatio_Sfc_LatLon0.15_PT240H.grib2 2026-04-29 16:52 2.3M
20260429T12Z_MSC_GDPS_O3_EAtm_LatLon0.15_PT240H.grib2 2026-04-29 16:52 2.4M
20260429T12Z_MSC_GDPS_PlanetaryBoundaryLayerHeight_Sfc_LatLon0.15_PT240H.grib2 2026-04-29 16:47 2.5M
20260429T12Z_MSC_GDPS_Precip-Accum12h_Sfc_LatLon0.15_PT240H.grib2 2026-04-29 16:47 4.1M
20260429T12Z_MSC_GDPS_Precip-Accum24h_Sfc_LatLon0.15_PT240H.grib2 2026-04-29 16:47 4.3M
20260429T12Z_MSC_GDPS_Precip-Accum6h_Sfc_LatLon0.15_PT240H.grib2 2026-04-29 16:47 3.7M
20260429T12Z_MSC_GDPS_Precip-Accum_Sfc_LatLon0.15_PT240H.grib2 2026-04-29 16:47 5.2M
20260429T12Z_MSC_GDPS_PrecipRate_Sfc_LatLon0.15_PT240H.grib2 2026-04-29 16:47 3.1M
20260429T12Z_MSC_GDPS_PrecipType-Instant_Sfc_LatLon0.15_PT240H.grib2 2026-04-29 16:47 1.6M
20260429T12Z_MSC_GDPS_Pressure_MSL_LatLon0.15_PT240H.grib2 2026-04-29 16:47 726K
20260429T12Z_MSC_GDPS_Pressure_PVU-1.5_LatLon0.15_PT240H.grib2 2026-04-29 16:47 5.8M
20260429T12Z_MSC_GDPS_Pressure_PVU-1_LatLon0.15_PT240H.grib2 2026-04-29 16:47 6.0M
20260429T12Z_MSC_GDPS_Pressure_PVU-2_LatLon0.15_PT240H.grib2 2026-04-29 16:47 5.6M
20260429T12Z_MSC_GDPS_Pressure_Sfc_LatLon0.15_PT240H.grib2 2026-04-29 16:47 1.1M
20260429T12Z_MSC_GDPS_RadiativeTemp_Sfc_LatLon0.15_PT240H.grib2 2026-04-29 16:47 501K
20260429T12Z_MSC_GDPS_Rain-Accum12h_Sfc_LatLon0.15_PT240H.grib2 2026-04-29 16:47 2.7M
20260429T12Z_MSC_GDPS_Rain-Accum24h_Sfc_LatLon0.15_PT240H.grib2 2026-04-29 16:47 3.1M
20260429T12Z_MSC_GDPS_Rain-Accum6h_Sfc_LatLon0.15_PT240H.grib2 2026-04-29 16:47 2.3M
20260429T12Z_MSC_GDPS_Rain-Accum_Sfc_LatLon0.15_PT240H.grib2 2026-04-29 16:47 4.1M
20260429T12Z_MSC_GDPS_RelativeHumidity_AGL-2m_LatLon0.15_PT240H.grib2 2026-04-29 16:47 1.0M
20260429T12Z_MSC_GDPS_RelativeHumidity_IsbL-0010_LatLon0.15_PT240H.grib2 2026-04-29 16:47 128K
20260429T12Z_MSC_GDPS_RelativeHumidity_IsbL-0020_LatLon0.15_PT240H.grib2 2026-04-29 16:47 113K
20260429T12Z_MSC_GDPS_RelativeHumidity_IsbL-0030_LatLon0.15_PT240H.grib2 2026-04-29 16:47 188K
20260429T12Z_MSC_GDPS_RelativeHumidity_IsbL-0050_LatLon0.15_PT240H.grib2 2026-04-29 16:47 337K
20260429T12Z_MSC_GDPS_RelativeHumidity_IsbL-0100_LatLon0.15_PT240H.grib2 2026-04-29 16:47 496K
20260429T12Z_MSC_GDPS_RelativeHumidity_IsbL-0150_LatLon0.15_PT240H.grib2 2026-04-29 16:47 676K
20260429T12Z_MSC_GDPS_RelativeHumidity_IsbL-0175_LatLon0.15_PT240H.grib2 2026-04-29 16:47 811K
20260429T12Z_MSC_GDPS_RelativeHumidity_IsbL-0200_LatLon0.15_PT240H.grib2 2026-04-29 16:47 717K
20260429T12Z_MSC_GDPS_RelativeHumidity_IsbL-0225_LatLon0.15_PT240H.grib2 2026-04-29 16:47 794K
20260429T12Z_MSC_GDPS_RelativeHumidity_IsbL-0250_LatLon0.15_PT240H.grib2 2026-04-29 16:47 868K
20260429T12Z_MSC_GDPS_RelativeHumidity_IsbL-0275_LatLon0.15_PT240H.grib2 2026-04-29 16:47 891K
20260429T12Z_MSC_GDPS_RelativeHumidity_IsbL-0300_LatLon0.15_PT240H.grib2 2026-04-29 16:47 935K
20260429T12Z_MSC_GDPS_RelativeHumidity_IsbL-0350_LatLon0.15_PT240H.grib2 2026-04-29 16:47 952K
20260429T12Z_MSC_GDPS_RelativeHumidity_IsbL-0400_LatLon0.15_PT240H.grib2 2026-04-29 16:47 970K
20260429T12Z_MSC_GDPS_RelativeHumidity_IsbL-0450_LatLon0.15_PT240H.grib2 2026-04-29 16:47 1.0M
20260429T12Z_MSC_GDPS_RelativeHumidity_IsbL-0500_LatLon0.15_PT240H.grib2 2026-04-29 16:47 1.0M
20260429T12Z_MSC_GDPS_RelativeHumidity_IsbL-0550_LatLon0.15_PT240H.grib2 2026-04-29 16:47 1.0M
20260429T12Z_MSC_GDPS_RelativeHumidity_IsbL-0600_LatLon0.15_PT240H.grib2 2026-04-29 16:47 1.0M
20260429T12Z_MSC_GDPS_RelativeHumidity_IsbL-0650_LatLon0.15_PT240H.grib2 2026-04-29 16:47 1.1M
20260429T12Z_MSC_GDPS_RelativeHumidity_IsbL-0700_LatLon0.15_PT240H.grib2 2026-04-29 16:47 1.1M
20260429T12Z_MSC_GDPS_RelativeHumidity_IsbL-0750_LatLon0.15_PT240H.grib2 2026-04-29 16:47 1.2M
20260429T12Z_MSC_GDPS_RelativeHumidity_IsbL-0800_LatLon0.15_PT240H.grib2 2026-04-29 16:47 1.2M
20260429T12Z_MSC_GDPS_RelativeHumidity_IsbL-0850_LatLon0.15_PT240H.grib2 2026-04-29 16:47 1.3M
20260429T12Z_MSC_GDPS_RelativeHumidity_IsbL-0875_LatLon0.15_PT240H.grib2 2026-04-29 16:47 1.3M
20260429T12Z_MSC_GDPS_RelativeHumidity_IsbL-0900_LatLon0.15_PT240H.grib2 2026-04-29 16:47 1.2M
20260429T12Z_MSC_GDPS_RelativeHumidity_IsbL-0925_LatLon0.15_PT240H.grib2 2026-04-29 16:47 1.2M
20260429T12Z_MSC_GDPS_RelativeHumidity_IsbL-0950_LatLon0.15_PT240H.grib2 2026-04-29 16:47 1.2M
20260429T12Z_MSC_GDPS_RelativeHumidity_IsbL-0970_LatLon0.15_PT240H.grib2 2026-04-29 16:47 1.2M
20260429T12Z_MSC_GDPS_RelativeHumidity_IsbL-0985_LatLon0.15_PT240H.grib2 2026-04-29 16:47 1.1M
20260429T12Z_MSC_GDPS_RelativeHumidity_IsbL-1000_LatLon0.15_PT240H.grib2 2026-04-29 16:47 1.1M
20260429T12Z_MSC_GDPS_RelativeHumidity_IsbL-1015_LatLon0.15_PT240H.grib2 2026-04-29 16:47 1.1M
20260429T12Z_MSC_GDPS_RelativeVorticity_IsbL-0200_LatLon0.15_PT240H.grib2 2026-04-29 16:47 1.2M
20260429T12Z_MSC_GDPS_RelativeVorticity_IsbL-0250_LatLon0.15_PT240H.grib2 2026-04-29 16:47 1.3M
20260429T12Z_MSC_GDPS_RelativeVorticity_IsbL-0500_LatLon0.15_PT240H.grib2 2026-04-29 16:47 1.2M
20260429T12Z_MSC_GDPS_RelativeVorticity_IsbL-0700_LatLon0.15_PT240H.grib2 2026-04-29 16:47 1.3M
20260429T12Z_MSC_GDPS_RelativeVorticity_IsbL-0850_LatLon0.15_PT240H.grib2 2026-04-29 16:47 1.6M
20260429T12Z_MSC_GDPS_Runoff-Accum_Sfc_LatLon0.15_PT240H.grib2 2026-04-29 16:47 144K
20260429T12Z_MSC_GDPS_SensibleHeatNetFlux_Sfc_LatLon0.15_PT240H.grib2 2026-04-29 16:47 490K
20260429T12Z_MSC_GDPS_ShowalterIndex_IsbL-0500_LatLon0.15_PT240H.grib2 2026-04-29 16:47 6.2M
20260429T12Z_MSC_GDPS_Snow-Accum12h_Sfc_LatLon0.15_PT240H.grib2 2026-04-29 16:47 1.5M
20260429T12Z_MSC_GDPS_Snow-Accum24h_Sfc_LatLon0.15_PT240H.grib2 2026-04-29 16:47 1.6M
20260429T12Z_MSC_GDPS_Snow-Accum6h_Sfc_LatLon0.15_PT240H.grib2 2026-04-29 16:47 1.4M
20260429T12Z_MSC_GDPS_Snow-Accum_Sfc_LatLon0.15_PT240H.grib2 2026-04-29 16:47 2.2M
20260429T12Z_MSC_GDPS_SnowDensity_Sfc_LatLon0.15_PT240H.grib2 2026-04-29 16:47 261K
20260429T12Z_MSC_GDPS_SnowDepth_Sfc_LatLon0.15_PT240H.grib2 2026-04-29 16:47 1.7M
20260429T12Z_MSC_GDPS_SoilTemp_DBS-0to10cm_LatLon0.15_PT240H.grib2 2026-04-29 16:47 516K
20260429T12Z_MSC_GDPS_SoilTemp_Sfc_LatLon0.15_PT240H.grib2 2026-04-29 16:47 577K
20260429T12Z_MSC_GDPS_SoilVolumetricIceContent_Sfc_LatLon0.15_PT240H.grib2 2026-04-29 16:47 179K
20260429T12Z_MSC_GDPS_SoilVolumetricWaterContent_DBS-0to10cm_LatLon0.15_PT240H.grib2 2026-04-29 16:47 596K
20260429T12Z_MSC_GDPS_SoilVolumetricWaterContent_DBS-0to1cm_LatLon0.15_PT240H.grib2 2026-04-29 16:47 648K
20260429T12Z_MSC_GDPS_SpecificHumidity_AGL-120m_LatLon0.15_PT240H.grib2 2026-04-29 16:47 1.1M
20260429T12Z_MSC_GDPS_SpecificHumidity_AGL-2m_LatLon0.15_PT240H.grib2 2026-04-29 16:47 1.2M
20260429T12Z_MSC_GDPS_SpecificHumidity_AGL-40m_LatLon0.15_PT240H.grib2 2026-04-29 16:47 1.1M
20260429T12Z_MSC_GDPS_SpecificHumidity_AGL-80m_LatLon0.15_PT240H.grib2 2026-04-29 16:47 1.1M
20260429T12Z_MSC_GDPS_SpecificHumidity_IsbL-0001_LatLon0.15_PT240H.grib2 2026-04-29 16:47 1.1M
20260429T12Z_MSC_GDPS_SpecificHumidity_IsbL-0005_LatLon0.15_PT240H.grib2 2026-04-29 16:47 1.0M
20260429T12Z_MSC_GDPS_SpecificHumidity_IsbL-0010_LatLon0.15_PT240H.grib2 2026-04-29 16:47 1.1M
20260429T12Z_MSC_GDPS_SpecificHumidity_IsbL-0020_LatLon0.15_PT240H.grib2 2026-04-29 16:47 1.5M
20260429T12Z_MSC_GDPS_SpecificHumidity_IsbL-0030_LatLon0.15_PT240H.grib2 2026-04-29 16:47 1.4M
20260429T12Z_MSC_GDPS_SpecificHumidity_IsbL-0050_LatLon0.15_PT240H.grib2 2026-04-29 16:47 1.4M
20260429T12Z_MSC_GDPS_SpecificHumidity_IsbL-0100_LatLon0.15_PT240H.grib2 2026-04-29 16:47 1.2M
20260429T12Z_MSC_GDPS_SpecificHumidity_IsbL-0150_LatLon0.15_PT240H.grib2 2026-04-29 16:47 1.3M
20260429T12Z_MSC_GDPS_SpecificHumidity_IsbL-0175_LatLon0.15_PT240H.grib2 2026-04-29 16:47 1.3M
20260429T12Z_MSC_GDPS_SpecificHumidity_IsbL-0200_LatLon0.15_PT240H.grib2 2026-04-29 16:47 1.3M
20260429T12Z_MSC_GDPS_SpecificHumidity_IsbL-0225_LatLon0.15_PT240H.grib2 2026-04-29 16:47 1.3M
20260429T12Z_MSC_GDPS_SpecificHumidity_IsbL-0250_LatLon0.15_PT240H.grib2 2026-04-29 16:47 1.2M
20260429T12Z_MSC_GDPS_SpecificHumidity_IsbL-0275_LatLon0.15_PT240H.grib2 2026-04-29 16:47 1.1M
20260429T12Z_MSC_GDPS_SpecificHumidity_IsbL-0300_LatLon0.15_PT240H.grib2 2026-04-29 16:47 1.2M
20260429T12Z_MSC_GDPS_SpecificHumidity_IsbL-0350_LatLon0.15_PT240H.grib2 2026-04-29 16:47 1.2M
20260429T12Z_MSC_GDPS_SpecificHumidity_IsbL-0400_LatLon0.15_PT240H.grib2 2026-04-29 16:47 1.4M
20260429T12Z_MSC_GDPS_SpecificHumidity_IsbL-0450_LatLon0.15_PT240H.grib2 2026-04-29 16:47 1.3M
20260429T12Z_MSC_GDPS_SpecificHumidity_IsbL-0500_LatLon0.15_PT240H.grib2 2026-04-29 16:47 1.5M
20260429T12Z_MSC_GDPS_SpecificHumidity_IsbL-0550_LatLon0.15_PT240H.grib2 2026-04-29 16:47 1.6M
20260429T12Z_MSC_GDPS_SpecificHumidity_IsbL-0600_LatLon0.15_PT240H.grib2 2026-04-29 16:47 1.4M
20260429T12Z_MSC_GDPS_SpecificHumidity_IsbL-0650_LatLon0.15_PT240H.grib2 2026-04-29 16:47 1.5M
20260429T12Z_MSC_GDPS_SpecificHumidity_IsbL-0700_LatLon0.15_PT240H.grib2 2026-04-29 16:47 1.6M
20260429T12Z_MSC_GDPS_SpecificHumidity_IsbL-0750_LatLon0.15_PT240H.grib2 2026-04-29 16:47 1.7M
20260429T12Z_MSC_GDPS_SpecificHumidity_IsbL-0800_LatLon0.15_PT240H.grib2 2026-04-29 16:47 1.9M
20260429T12Z_MSC_GDPS_SpecificHumidity_IsbL-0850_LatLon0.15_PT240H.grib2 2026-04-29 16:47 2.0M
20260429T12Z_MSC_GDPS_SpecificHumidity_IsbL-0875_LatLon0.15_PT240H.grib2 2026-04-29 16:47 1.7M
20260429T12Z_MSC_GDPS_SpecificHumidity_IsbL-0900_LatLon0.15_PT240H.grib2 2026-04-29 16:47 1.6M
20260429T12Z_MSC_GDPS_SpecificHumidity_IsbL-0925_LatLon0.15_PT240H.grib2 2026-04-29 16:47 1.6M
20260429T12Z_MSC_GDPS_SpecificHumidity_IsbL-0950_LatLon0.15_PT240H.grib2 2026-04-29 16:47 1.6M
20260429T12Z_MSC_GDPS_SpecificHumidity_IsbL-0970_LatLon0.15_PT240H.grib2 2026-04-29 16:47 1.6M
20260429T12Z_MSC_GDPS_SpecificHumidity_IsbL-0985_LatLon0.15_PT240H.grib2 2026-04-29 16:47 1.5M
20260429T12Z_MSC_GDPS_SpecificHumidity_IsbL-1000_LatLon0.15_PT240H.grib2 2026-04-29 16:47 1.5M
20260429T12Z_MSC_GDPS_SpecificHumidity_IsbL-1015_LatLon0.15_PT240H.grib2 2026-04-29 16:47 1.5M
20260429T12Z_MSC_GDPS_SpecificHumidity_Sfc_LatLon0.15_PT240H.grib2 2026-04-29 16:47 601K
20260429T12Z_MSC_GDPS_Thickness_IsbL-0850to0700_LatLon0.15_PT240H.grib2 2026-04-29 16:47 473K
20260429T12Z_MSC_GDPS_Thickness_IsbL-1000to0500_LatLon0.15_PT240H.grib2 2026-04-29 16:47 375K
20260429T12Z_MSC_GDPS_Thickness_IsbL-1000to0850_LatLon0.15_PT240H.grib2 2026-04-29 16:47 493K
20260429T12Z_MSC_GDPS_TotalCloudCover_Sfc_LatLon0.15_PT240H.grib2 2026-04-29 16:47 845K
20260429T12Z_MSC_GDPS_TotalTotalsIndex_Sfc_LatLon0.15_PT240H.grib2 2026-04-29 16:47 6.2M
20260429T12Z_MSC_GDPS_UVIndex-ClearSky_Sfc_LatLon0.15_PT240H.grib2 2026-04-29 16:52 1.0M
20260429T12Z_MSC_GDPS_UVIndex_Sfc_LatLon0.15_PT240H.grib2 2026-04-29 16:52 1.5M
20260429T12Z_MSC_GDPS_UpwardLongwaveRadiationFlux_NTAtm_LatLon0.15_PT240H.grib2 2026-04-29 16:47 841K
20260429T12Z_MSC_GDPS_VerticalVelocity_IsbL-0200_LatLon0.15_PT240H.grib2 2026-04-29 16:47 940K
20260429T12Z_MSC_GDPS_VerticalVelocity_IsbL-0250_LatLon0.15_PT240H.grib2 2026-04-29 16:47 1.0M
20260429T12Z_MSC_GDPS_VerticalVelocity_IsbL-0500_LatLon0.15_PT240H.grib2 2026-04-29 16:47 1.0M
20260429T12Z_MSC_GDPS_VerticalVelocity_IsbL-0600_LatLon0.15_PT240H.grib2 2026-04-29 16:47 1.1M
20260429T12Z_MSC_GDPS_VerticalVelocity_IsbL-0700_LatLon0.15_PT240H.grib2 2026-04-29 16:47 1.2M
20260429T12Z_MSC_GDPS_VerticalVelocity_IsbL-0850_LatLon0.15_PT240H.grib2 2026-04-29 16:47 1.3M
20260429T12Z_MSC_GDPS_WindChill_Sfc_LatLon0.15_PT240H.grib2 2026-04-29 16:47 5.3M
20260429T12Z_MSC_GDPS_WindDir_AGL-10m_LatLon0.15_PT240H.grib2 2026-04-29 16:47 1.3M
20260429T12Z_MSC_GDPS_WindDir_AGL-120m_LatLon0.15_PT240H.grib2 2026-04-29 16:47 1.3M
20260429T12Z_MSC_GDPS_WindDir_AGL-40m_LatLon0.15_PT240H.grib2 2026-04-29 16:47 1.4M
20260429T12Z_MSC_GDPS_WindDir_AGL-80m_LatLon0.15_PT240H.grib2 2026-04-29 16:47 1.3M
20260429T12Z_MSC_GDPS_WindDir_IsbL-0001_LatLon0.15_PT240H.grib2 2026-04-29 16:47 658K
20260429T12Z_MSC_GDPS_WindDir_IsbL-0005_LatLon0.15_PT240H.grib2 2026-04-29 16:47 802K
20260429T12Z_MSC_GDPS_WindDir_IsbL-0010_LatLon0.15_PT240H.grib2 2026-04-29 16:47 835K
20260429T12Z_MSC_GDPS_WindDir_IsbL-0020_LatLon0.15_PT240H.grib2 2026-04-29 16:47 946K
20260429T12Z_MSC_GDPS_WindDir_IsbL-0030_LatLon0.15_PT240H.grib2 2026-04-29 16:47 938K
20260429T12Z_MSC_GDPS_WindDir_IsbL-0050_LatLon0.15_PT240H.grib2 2026-04-29 16:47 951K
20260429T12Z_MSC_GDPS_WindDir_IsbL-0100_LatLon0.15_PT240H.grib2 2026-04-29 16:47 1.0M
20260429T12Z_MSC_GDPS_WindDir_IsbL-0150_LatLon0.15_PT240H.grib2 2026-04-29 16:47 1.0M
20260429T12Z_MSC_GDPS_WindDir_IsbL-0175_LatLon0.15_PT240H.grib2 2026-04-29 16:47 1.0M
20260429T12Z_MSC_GDPS_WindDir_IsbL-0200_LatLon0.15_PT240H.grib2 2026-04-29 16:47 1.1M
20260429T12Z_MSC_GDPS_WindDir_IsbL-0225_LatLon0.15_PT240H.grib2 2026-04-29 16:47 1.1M
20260429T12Z_MSC_GDPS_WindDir_IsbL-0250_LatLon0.15_PT240H.grib2 2026-04-29 16:47 1.1M
20260429T12Z_MSC_GDPS_WindDir_IsbL-0275_LatLon0.15_PT240H.grib2 2026-04-29 16:47 1.2M
20260429T12Z_MSC_GDPS_WindDir_IsbL-0300_LatLon0.15_PT240H.grib2 2026-04-29 16:47 1.2M
20260429T12Z_MSC_GDPS_WindDir_IsbL-0350_LatLon0.15_PT240H.grib2 2026-04-29 16:47 1.2M
20260429T12Z_MSC_GDPS_WindDir_IsbL-0400_LatLon0.15_PT240H.grib2 2026-04-29 16:47 1.3M
20260429T12Z_MSC_GDPS_WindDir_IsbL-0450_LatLon0.15_PT240H.grib2 2026-04-29 16:47 1.3M
20260429T12Z_MSC_GDPS_WindDir_IsbL-0500_LatLon0.15_PT240H.grib2 2026-04-29 16:47 1.3M
20260429T12Z_MSC_GDPS_WindDir_IsbL-0550_LatLon0.15_PT240H.grib2 2026-04-29 16:47 1.4M
20260429T12Z_MSC_GDPS_WindDir_IsbL-0600_LatLon0.15_PT240H.grib2 2026-04-29 16:47 1.4M
20260429T12Z_MSC_GDPS_WindDir_IsbL-0650_LatLon0.15_PT240H.grib2 2026-04-29 16:47 1.5M
20260429T12Z_MSC_GDPS_WindDir_IsbL-0700_LatLon0.15_PT240H.grib2 2026-04-29 16:47 1.6M
20260429T12Z_MSC_GDPS_WindDir_IsbL-0750_LatLon0.15_PT240H.grib2 2026-04-29 16:47 1.7M
20260429T12Z_MSC_GDPS_WindDir_IsbL-0800_LatLon0.15_PT240H.grib2 2026-04-29 16:47 1.8M
20260429T12Z_MSC_GDPS_WindDir_IsbL-0850_LatLon0.15_PT240H.grib2 2026-04-29 16:47 1.9M
20260429T12Z_MSC_GDPS_WindDir_IsbL-0875_LatLon0.15_PT240H.grib2 2026-04-29 16:47 1.9M
20260429T12Z_MSC_GDPS_WindDir_IsbL-0900_LatLon0.15_PT240H.grib2 2026-04-29 16:47 1.9M
20260429T12Z_MSC_GDPS_WindDir_IsbL-0925_LatLon0.15_PT240H.grib2 2026-04-29 16:47 2.0M
20260429T12Z_MSC_GDPS_WindDir_IsbL-0950_LatLon0.15_PT240H.grib2 2026-04-29 16:47 2.0M
20260429T12Z_MSC_GDPS_WindDir_IsbL-0970_LatLon0.15_PT240H.grib2 2026-04-29 16:47 2.0M
20260429T12Z_MSC_GDPS_WindDir_IsbL-0985_LatLon0.15_PT240H.grib2 2026-04-29 16:47 2.0M
20260429T12Z_MSC_GDPS_WindDir_IsbL-1000_LatLon0.15_PT240H.grib2 2026-04-29 16:47 2.0M
20260429T12Z_MSC_GDPS_WindDir_IsbL-1015_LatLon0.15_PT240H.grib2 2026-04-29 16:47 2.0M
20260429T12Z_MSC_GDPS_WindGust-Max_AGL-10m_LatLon0.15_PT240H.grib2 2026-04-29 16:47 2.2M
20260429T12Z_MSC_GDPS_WindGust-Min_AGL-10m_LatLon0.15_PT240H.grib2 2026-04-29 16:47 2.2M
20260429T12Z_MSC_GDPS_WindGust_AGL-10m_LatLon0.15_PT240H.grib2 2026-04-29 16:47 2.1M
20260429T12Z_MSC_GDPS_WindSpeed_AGL-10m_LatLon0.15_PT240H.grib2 2026-04-29 16:47 1.1M
20260429T12Z_MSC_GDPS_WindSpeed_AGL-120m_LatLon0.15_PT240H.grib2 2026-04-29 16:47 1.2M
20260429T12Z_MSC_GDPS_WindSpeed_AGL-40m_LatLon0.15_PT240H.grib2 2026-04-29 16:47 1.2M
20260429T12Z_MSC_GDPS_WindSpeed_AGL-80m_LatLon0.15_PT240H.grib2 2026-04-29 16:47 1.2M
20260429T12Z_MSC_GDPS_WindSpeed_IsbL-0001_LatLon0.15_PT240H.grib2 2026-04-29 16:47 651K
20260429T12Z_MSC_GDPS_WindSpeed_IsbL-0005_LatLon0.15_PT240H.grib2 2026-04-29 16:47 696K
20260429T12Z_MSC_GDPS_WindSpeed_IsbL-0010_LatLon0.15_PT240H.grib2 2026-04-29 16:47 625K
20260429T12Z_MSC_GDPS_WindSpeed_IsbL-0020_LatLon0.15_PT240H.grib2 2026-04-29 16:47 663K
20260429T12Z_MSC_GDPS_WindSpeed_IsbL-0030_LatLon0.15_PT240H.grib2 2026-04-29 16:47 859K
20260429T12Z_MSC_GDPS_WindSpeed_IsbL-0050_LatLon0.15_PT240H.grib2 2026-04-29 16:47 897K
20260429T12Z_MSC_GDPS_WindSpeed_IsbL-0100_LatLon0.15_PT240H.grib2 2026-04-29 16:47 1.1M
20260429T12Z_MSC_GDPS_WindSpeed_IsbL-0150_LatLon0.15_PT240H.grib2 2026-04-29 16:47 935K
20260429T12Z_MSC_GDPS_WindSpeed_IsbL-0175_LatLon0.15_PT240H.grib2 2026-04-29 16:47 1.0M
20260429T12Z_MSC_GDPS_WindSpeed_IsbL-0200_LatLon0.15_PT240H.grib2 2026-04-29 16:47 1.1M
20260429T12Z_MSC_GDPS_WindSpeed_IsbL-0225_LatLon0.15_PT240H.grib2 2026-04-29 16:47 1.1M
20260429T12Z_MSC_GDPS_WindSpeed_IsbL-0250_LatLon0.15_PT240H.grib2 2026-04-29 16:47 1.1M
20260429T12Z_MSC_GDPS_WindSpeed_IsbL-0275_LatLon0.15_PT240H.grib2 2026-04-29 16:47 1.1M
20260429T12Z_MSC_GDPS_WindSpeed_IsbL-0300_LatLon0.15_PT240H.grib2 2026-04-29 16:47 1.1M
20260429T12Z_MSC_GDPS_WindSpeed_IsbL-0350_LatLon0.15_PT240H.grib2 2026-04-29 16:47 1.1M
20260429T12Z_MSC_GDPS_WindSpeed_IsbL-0400_LatLon0.15_PT240H.grib2 2026-04-29 16:47 1.1M
20260429T12Z_MSC_GDPS_WindSpeed_IsbL-0450_LatLon0.15_PT240H.grib2 2026-04-29 16:47 1.1M
20260429T12Z_MSC_GDPS_WindSpeed_IsbL-0500_LatLon0.15_PT240H.grib2 2026-04-29 16:47 1.1M
20260429T12Z_MSC_GDPS_WindSpeed_IsbL-0550_LatLon0.15_PT240H.grib2 2026-04-29 16:47 1.1M
20260429T12Z_MSC_GDPS_WindSpeed_IsbL-0600_LatLon0.15_PT240H.grib2 2026-04-29 16:47 1.1M
20260429T12Z_MSC_GDPS_WindSpeed_IsbL-0650_LatLon0.15_PT240H.grib2 2026-04-29 16:47 1.4M
20260429T12Z_MSC_GDPS_WindSpeed_IsbL-0700_LatLon0.15_PT240H.grib2 2026-04-29 16:47 1.5M
20260429T12Z_MSC_GDPS_WindSpeed_IsbL-0750_LatLon0.15_PT240H.grib2 2026-04-29 16:47 1.6M
20260429T12Z_MSC_GDPS_WindSpeed_IsbL-0800_LatLon0.15_PT240H.grib2 2026-04-29 16:47 1.6M
20260429T12Z_MSC_GDPS_WindSpeed_IsbL-0850_LatLon0.15_PT240H.grib2 2026-04-29 16:47 1.7M
20260429T12Z_MSC_GDPS_WindSpeed_IsbL-0875_LatLon0.15_PT240H.grib2 2026-04-29 16:47 1.8M
20260429T12Z_MSC_GDPS_WindSpeed_IsbL-0900_LatLon0.15_PT240H.grib2 2026-04-29 16:47 1.8M
20260429T12Z_MSC_GDPS_WindSpeed_IsbL-0925_LatLon0.15_PT240H.grib2 2026-04-29 16:47 1.8M
20260429T12Z_MSC_GDPS_WindSpeed_IsbL-0950_LatLon0.15_PT240H.grib2 2026-04-29 16:47 1.8M
20260429T12Z_MSC_GDPS_WindSpeed_IsbL-0970_LatLon0.15_PT240H.grib2 2026-04-29 16:47 1.8M
20260429T12Z_MSC_GDPS_WindSpeed_IsbL-0985_LatLon0.15_PT240H.grib2 2026-04-29 16:47 1.9M
20260429T12Z_MSC_GDPS_WindSpeed_IsbL-1000_LatLon0.15_PT240H.grib2 2026-04-29 16:47 1.8M
20260429T12Z_MSC_GDPS_WindSpeed_IsbL-1015_LatLon0.15_PT240H.grib2 2026-04-29 16:47 1.8M
20260429T12Z_MSC_GDPS_WindU_AGL-10m_LatLon0.15_PT240H.grib2 2026-04-29 16:47 1.3M
20260429T12Z_MSC_GDPS_WindU_AGL-120m_LatLon0.15_PT240H.grib2 2026-04-29 16:47 1.0M
20260429T12Z_MSC_GDPS_WindU_AGL-40m_LatLon0.15_PT240H.grib2 2026-04-29 16:47 966K
20260429T12Z_MSC_GDPS_WindU_AGL-80m_LatLon0.15_PT240H.grib2 2026-04-29 16:47 970K
20260429T12Z_MSC_GDPS_WindU_IsbL-0001_LatLon0.15_PT240H.grib2 2026-04-29 16:47 504K
20260429T12Z_MSC_GDPS_WindU_IsbL-0005_LatLon0.15_PT240H.grib2 2026-04-29 16:47 694K
20260429T12Z_MSC_GDPS_WindU_IsbL-0010_LatLon0.15_PT240H.grib2 2026-04-29 16:47 702K
20260429T12Z_MSC_GDPS_WindU_IsbL-0020_LatLon0.15_PT240H.grib2 2026-04-29 16:47 729K
20260429T12Z_MSC_GDPS_WindU_IsbL-0030_LatLon0.15_PT240H.grib2 2026-04-29 16:47 735K
20260429T12Z_MSC_GDPS_WindU_IsbL-0050_LatLon0.15_PT240H.grib2 2026-04-29 16:47 759K
20260429T12Z_MSC_GDPS_WindU_IsbL-0100_LatLon0.15_PT240H.grib2 2026-04-29 16:47 861K
20260429T12Z_MSC_GDPS_WindU_IsbL-0150_LatLon0.15_PT240H.grib2 2026-04-29 16:47 1.0M
20260429T12Z_MSC_GDPS_WindU_IsbL-0175_LatLon0.15_PT240H.grib2 2026-04-29 16:47 1.0M
20260429T12Z_MSC_GDPS_WindU_IsbL-0200_LatLon0.15_PT240H.grib2 2026-04-29 16:47 1.0M
20260429T12Z_MSC_GDPS_WindU_IsbL-0225_LatLon0.15_PT240H.grib2 2026-04-29 16:47 849K
20260429T12Z_MSC_GDPS_WindU_IsbL-0250_LatLon0.15_PT240H.grib2 2026-04-29 16:47 853K
20260429T12Z_MSC_GDPS_WindU_IsbL-0275_LatLon0.15_PT240H.grib2 2026-04-29 16:47 882K
20260429T12Z_MSC_GDPS_WindU_IsbL-0300_LatLon0.15_PT240H.grib2 2026-04-29 16:47 876K
20260429T12Z_MSC_GDPS_WindU_IsbL-0350_LatLon0.15_PT240H.grib2 2026-04-29 16:47 892K
20260429T12Z_MSC_GDPS_WindU_IsbL-0400_LatLon0.15_PT240H.grib2 2026-04-29 16:47 895K
20260429T12Z_MSC_GDPS_WindU_IsbL-0450_LatLon0.15_PT240H.grib2 2026-04-29 16:47 1.1M
20260429T12Z_MSC_GDPS_WindU_IsbL-0500_LatLon0.15_PT240H.grib2 2026-04-29 16:47 1.1M
20260429T12Z_MSC_GDPS_WindU_IsbL-0550_LatLon0.15_PT240H.grib2 2026-04-29 16:47 1.1M
20260429T12Z_MSC_GDPS_WindU_IsbL-0600_LatLon0.15_PT240H.grib2 2026-04-29 16:47 1.1M
20260429T12Z_MSC_GDPS_WindU_IsbL-0650_LatLon0.15_PT240H.grib2 2026-04-29 16:47 1.2M
20260429T12Z_MSC_GDPS_WindU_IsbL-0700_LatLon0.15_PT240H.grib2 2026-04-29 16:47 1.2M
20260429T12Z_MSC_GDPS_WindU_IsbL-0750_LatLon0.15_PT240H.grib2 2026-04-29 16:47 1.3M
20260429T12Z_MSC_GDPS_WindU_IsbL-0800_LatLon0.15_PT240H.grib2 2026-04-29 16:47 1.4M
20260429T12Z_MSC_GDPS_WindU_IsbL-0850_LatLon0.15_PT240H.grib2 2026-04-29 16:47 1.4M
20260429T12Z_MSC_GDPS_WindU_IsbL-0875_LatLon0.15_PT240H.grib2 2026-04-29 16:47 1.5M
20260429T12Z_MSC_GDPS_WindU_IsbL-0900_LatLon0.15_PT240H.grib2 2026-04-29 16:47 1.5M
20260429T12Z_MSC_GDPS_WindU_IsbL-0925_LatLon0.15_PT240H.grib2 2026-04-29 16:47 1.5M
20260429T12Z_MSC_GDPS_WindU_IsbL-0950_LatLon0.15_PT240H.grib2 2026-04-29 16:47 1.4M
20260429T12Z_MSC_GDPS_WindU_IsbL-0970_LatLon0.15_PT240H.grib2 2026-04-29 16:47 1.4M
20260429T12Z_MSC_GDPS_WindU_IsbL-0985_LatLon0.15_PT240H.grib2 2026-04-29 16:47 1.4M
20260429T12Z_MSC_GDPS_WindU_IsbL-1000_LatLon0.15_PT240H.grib2 2026-04-29 16:47 1.4M
20260429T12Z_MSC_GDPS_WindU_IsbL-1015_LatLon0.15_PT240H.grib2 2026-04-29 16:47 1.4M
20260429T12Z_MSC_GDPS_WindV_AGL-10m_LatLon0.15_PT240H.grib2 2026-04-29 16:47 1.3M
20260429T12Z_MSC_GDPS_WindV_AGL-120m_LatLon0.15_PT240H.grib2 2026-04-29 16:47 1.0M
20260429T12Z_MSC_GDPS_WindV_AGL-40m_LatLon0.15_PT240H.grib2 2026-04-29 16:47 966K
20260429T12Z_MSC_GDPS_WindV_AGL-80m_LatLon0.15_PT240H.grib2 2026-04-29 16:47 971K
20260429T12Z_MSC_GDPS_WindV_IsbL-0001_LatLon0.15_PT240H.grib2 2026-04-29 16:47 787K
20260429T12Z_MSC_GDPS_WindV_IsbL-0005_LatLon0.15_PT240H.grib2 2026-04-29 16:47 771K
20260429T12Z_MSC_GDPS_WindV_IsbL-0010_LatLon0.15_PT240H.grib2 2026-04-29 16:47 888K
20260429T12Z_MSC_GDPS_WindV_IsbL-0020_LatLon0.15_PT240H.grib2 2026-04-29 16:47 934K
20260429T12Z_MSC_GDPS_WindV_IsbL-0030_LatLon0.15_PT240H.grib2 2026-04-29 16:47 858K
20260429T12Z_MSC_GDPS_WindV_IsbL-0050_LatLon0.15_PT240H.grib2 2026-04-29 16:47 895K
20260429T12Z_MSC_GDPS_WindV_IsbL-0100_LatLon0.15_PT240H.grib2 2026-04-29 16:47 853K
20260429T12Z_MSC_GDPS_WindV_IsbL-0150_LatLon0.15_PT240H.grib2 2026-04-29 16:47 1.0M
20260429T12Z_MSC_GDPS_WindV_IsbL-0175_LatLon0.15_PT240H.grib2 2026-04-29 16:47 1.0M
20260429T12Z_MSC_GDPS_WindV_IsbL-0200_LatLon0.15_PT240H.grib2 2026-04-29 16:47 836K
20260429T12Z_MSC_GDPS_WindV_IsbL-0225_LatLon0.15_PT240H.grib2 2026-04-29 16:47 846K
20260429T12Z_MSC_GDPS_WindV_IsbL-0250_LatLon0.15_PT240H.grib2 2026-04-29 16:47 909K
20260429T12Z_MSC_GDPS_WindV_IsbL-0275_LatLon0.15_PT240H.grib2 2026-04-29 16:47 936K
20260429T12Z_MSC_GDPS_WindV_IsbL-0300_LatLon0.15_PT240H.grib2 2026-04-29 16:47 930K
20260429T12Z_MSC_GDPS_WindV_IsbL-0350_LatLon0.15_PT240H.grib2 2026-04-29 16:47 882K
20260429T12Z_MSC_GDPS_WindV_IsbL-0400_LatLon0.15_PT240H.grib2 2026-04-29 16:47 882K
20260429T12Z_MSC_GDPS_WindV_IsbL-0450_LatLon0.15_PT240H.grib2 2026-04-29 16:47 884K
20260429T12Z_MSC_GDPS_WindV_IsbL-0500_LatLon0.15_PT240H.grib2 2026-04-29 16:47 888K
20260429T12Z_MSC_GDPS_WindV_IsbL-0550_LatLon0.15_PT240H.grib2 2026-04-29 16:47 1.1M
20260429T12Z_MSC_GDPS_WindV_IsbL-0600_LatLon0.15_PT240H.grib2 2026-04-29 16:47 1.1M
20260429T12Z_MSC_GDPS_WindV_IsbL-0650_LatLon0.15_PT240H.grib2 2026-04-29 16:47 1.2M
20260429T12Z_MSC_GDPS_WindV_IsbL-0700_LatLon0.15_PT240H.grib2 2026-04-29 16:47 1.2M
20260429T12Z_MSC_GDPS_WindV_IsbL-0750_LatLon0.15_PT240H.grib2 2026-04-29 16:47 1.3M
20260429T12Z_MSC_GDPS_WindV_IsbL-0800_LatLon0.15_PT240H.grib2 2026-04-29 16:47 1.3M
20260429T12Z_MSC_GDPS_WindV_IsbL-0850_LatLon0.15_PT240H.grib2 2026-04-29 16:47 1.4M
20260429T12Z_MSC_GDPS_WindV_IsbL-0875_LatLon0.15_PT240H.grib2 2026-04-29 16:47 1.5M
20260429T12Z_MSC_GDPS_WindV_IsbL-0900_LatLon0.15_PT240H.grib2 2026-04-29 16:47 1.5M
20260429T12Z_MSC_GDPS_WindV_IsbL-0925_LatLon0.15_PT240H.grib2 2026-04-29 16:47 1.4M
20260429T12Z_MSC_GDPS_WindV_IsbL-0950_LatLon0.15_PT240H.grib2 2026-04-29 16:47 1.4M
20260429T12Z_MSC_GDPS_WindV_IsbL-0970_LatLon0.15_PT240H.grib2 2026-04-29 16:47 1.4M
20260429T12Z_MSC_GDPS_WindV_IsbL-0985_LatLon0.15_PT240H.grib2 2026-04-29 16:47 1.4M
20260429T12Z_MSC_GDPS_WindV_IsbL-1000_LatLon0.15_PT240H.grib2 2026-04-29 16:47 1.4M
20260429T12Z_MSC_GDPS_WindV_IsbL-1015_LatLon0.15_PT240H.grib2 2026-04-29 16:47 1.4M